Weather History for Grove, OK

Change the Weather History Date:

Wednesday, December 18, 2013

  Actual Average (KSLG) Record (KSLG)
Temperature  
Mean Temperature 47 °F -  
Max Temperature 66 °F 43 °F 64 °F (2002)
Min Temperature 28 °F 26 °F 12 °F (1996)
Degree Days  
Heating Degree Days 18    
Moisture  
Dew Point 33 °F    
Average Humidity 62    
Maximum Humidity 100    
Minimum Humidity 32    
Precipitation  
Precipitation 0.00 in - - ()
Sea Level Pressure  
Sea Level Pressure 30.09 in    
Wind  
Wind Speed 6 mph (South)    
Max Wind Speed 24 mph    
Max Gust Speed 31 mph    
Visibility 10 miles    
Events      
Averages and records for this station are not official NWS values.
T = Trace of Precipitation, MM = Missing Value Source: NWS Daily Summary

Daily Weather History Graph

Daily Weather History Graph

Search for Another Location

Airport:

Trip Planner

Search our weather history database for the weather conditions in past years. The results will help you decide how hot, cold, wet, or windy it might be!

Date:

Astronomy

Dec. 18, 2013 Rise Set
Actual Time 7:25 AM CST 5:05 PM CST
Civil Twilight 6:57 AM CST 5:34 PM CST
Nautical Twilight 6:24 AM CST 6:06 PM CST
Astronomical Twilight 5:53 AM CST 6:38 PM CST
Moon 6:36 PM CST (12/18) 8:08 AM CST (12/18)
Length of Visible Light 10h 37m
Length of Day
9h 39m
Full, 98% of the Moon is Illuminated
Dec 18
Full
Dec 25
Last Quarter
Jan 1
New
Jan 7
First Quarter
Jan 15
Full

Hourly Weather History & Observations

Time (CST) Temp. Windchill Dew Point Humidity Pressure Visibility Wind Dir Wind Speed Gust Speed Precip Events Conditions
12:15 AM 32.0 °F - 32.0 °F 100% 30.30 in 10.0 mi Calm Calm - N/A   Clear
12:35 AM 30.2 °F - 30.2 °F 100% 30.29 in 10.0 mi Calm Calm - N/A   Clear
12:55 AM 30.2 °F - 30.2 °F 100% 30.28 in 10.0 mi Calm Calm - N/A   Clear
1:15 AM 30.2 °F - 30.2 °F 100% 30.28 in 10.0 mi Calm Calm - N/A   Clear
1:35 AM 30.2 °F - 30.2 °F 100% 30.27 in 10.0 mi Calm Calm - N/A   Clear
1:55 AM 30.2 °F - 30.2 °F 100% 30.27 in 10.0 mi Calm Calm - N/A   Clear
2:15 AM 30.2 °F - 30.2 °F 100% 30.26 in 10.0 mi Calm Calm - N/A   Clear
2:35 AM 30.2 °F - 30.2 °F 100% 30.25 in 10.0 mi Calm Calm - N/A   Clear
2:55 AM 30.2 °F - 30.2 °F 100% 30.25 in 10.0 mi Calm Calm - N/A   Clear
3:15 AM 30.2 °F - 30.2 °F 100% 30.25 in 10.0 mi Calm Calm - N/A   Clear
3:35 AM 30.2 °F - 30.2 °F 100% 30.24 in 10.0 mi Calm Calm - N/A   Clear
3:55 AM 30.2 °F - 30.2 °F 100% 30.24 in 10.0 mi Calm Calm - N/A   Clear
4:15 AM 30.2 °F - 30.2 °F 100% 30.23 in 10.0 mi Calm Calm - N/A   Clear
4:35 AM 28.4 °F - 28.4 °F 100% 30.23 in 10.0 mi Calm Calm - N/A   Clear
4:55 AM 28.4 °F - 28.4 °F 100% 30.22 in 10.0 mi Calm Calm - N/A   Clear
5:15 AM 28.4 °F - 28.4 °F 100% 30.22 in 10.0 mi Calm Calm - N/A   Clear
5:35 AM 28.4 °F - 28.4 °F 100% 30.21 in 10.0 mi Calm Calm - N/A   Clear
5:55 AM 28.4 °F - 28.4 °F 100% 30.21 in 10.0 mi Calm Calm - N/A   Clear
6:15 AM 28.4 °F - 28.4 °F 100% 30.20 in 10.0 mi Calm Calm - N/A   Clear
6:35 AM 28.4 °F - 28.4 °F 100% 30.20 in 10.0 mi Calm Calm - N/A   Clear
6:55 AM 30.2 °F - 30.2 °F 100% 30.20 in 10.0 mi Calm Calm - N/A   Clear
7:15 AM 30.2 °F 26.7 °F 30.2 °F 100% 30.19 in 10.0 mi East 3.5 mph - N/A   Clear
7:35 AM 30.2 °F - 30.2 °F 100% 30.19 in 10.0 mi Calm Calm - N/A   Clear
7:55 AM 32.0 °F - 30.2 °F 93% 30.18 in 10.0 mi Calm Calm - N/A   Clear
8:15 AM 35.6 °F 30.7 °F 32.0 °F 87% 30.18 in 10.0 mi South 5.8 mph - N/A   Clear
8:35 AM 44.6 °F 40.2 °F 32.0 °F 61% 30.17 in 10.0 mi South 8.1 mph - N/A   Clear
8:55 AM 46.4 °F 40.7 °F 32.0 °F 57% 30.17 in 10.0 mi South 12.7 mph - N/A   Clear
9:15 AM 48.2 °F - 32.0 °F 54% 30.17 in 10.0 mi South 11.5 mph 17.3 mph N/A   Clear
9:35 AM 51.8 °F - 32.0 °F 47% 30.17 in 10.0 mi South 12.7 mph 18.4 mph N/A   Clear
9:55 AM 53.6 °F - 32.0 °F 44% 30.17 in 10.0 mi South 12.7 mph 18.4 mph N/A   Clear
10:15 AM 55.4 °F - 32.0 °F 41% 30.17 in 10.0 mi South 12.7 mph 20.7 mph N/A   Clear
10:35 AM 57.2 °F - 32.0 °F 38% 30.16 in 10.0 mi South 15.0 mph - N/A   Clear
10:55 AM 59.0 °F - 33.8 °F 39% 30.16 in 10.0 mi South 19.6 mph 24.2 mph N/A   Clear
11:15 AM 60.8 °F - 33.8 °F 36% 30.14 in 10.0 mi South 16.1 mph 25.3 mph N/A   Clear
11:35 AM 60.8 °F - 33.8 °F 36% 30.13 in 10.0 mi South 17.3 mph 23.0 mph N/A   Clear
11:55 AM 62.6 °F - 33.8 °F 34% 30.11 in 10.0 mi SSW 19.6 mph 26.5 mph N/A   Clear
12:15 PM 62.6 °F - 35.6 °F 37% 30.10 in 10.0 mi South 24.2 mph 28.8 mph N/A   Clear
12:35 PM 64.4 °F - 35.6 °F 34% 30.08 in 10.0 mi SSW 19.6 mph 23.0 mph N/A   Clear
12:55 PM 64.4 °F - 35.6 °F 34% 30.07 in 10.0 mi SSW 19.6 mph 25.3 mph N/A   Clear
1:15 PM 64.4 °F - 35.6 °F 34% 30.05 in 10.0 mi SSW 19.6 mph 31.1 mph N/A   Clear
1:35 PM 64.4 °F - 35.6 °F 34% 30.04 in 10.0 mi SSW 17.3 mph 29.9 mph N/A   Clear
1:55 PM 64.4 °F - 35.6 °F 34% 30.03 in 10.0 mi South 19.6 mph 24.2 mph N/A   Clear
2:15 PM 66.2 °F - 35.6 °F 32% 30.01 in 10.0 mi South 16.1 mph - N/A   Clear
2:35 PM 66.2 °F - 35.6 °F 32% 30.01 in 10.0 mi South 16.1 mph 24.2 mph N/A   Clear
2:55 PM 64.4 °F - 35.6 °F 34% 30.01 in 10.0 mi South 15.0 mph 23.0 mph N/A   Clear
3:15 PM 64.4 °F - 35.6 °F 34% 30.00 in 10.0 mi South 19.6 mph 23.0 mph N/A   Clear
3:35 PM 62.6 °F - 35.6 °F 37% 30.00 in 10.0 mi South 15.0 mph 23.0 mph N/A   Clear
3:55 PM 62.6 °F - 35.6 °F 37% 29.99 in 10.0 mi South 16.1 mph 21.9 mph N/A   Clear
4:15 PM 62.6 °F - 35.6 °F 37% 29.98 in 10.0 mi South 16.1 mph 21.9 mph N/A   Clear
4:35 PM 60.8 °F - 35.6 °F 39% 29.97 in 10.0 mi South 11.5 mph 16.1 mph N/A   Clear
4:55 PM 60.8 °F - 35.6 °F 39% 29.96 in 10.0 mi SSE 8.1 mph - N/A   Clear
5:15 PM 59.0 °F - 35.6 °F 42% 29.96 in 10.0 mi SSE 8.1 mph - N/A   Clear
5:35 PM 57.2 °F - 35.6 °F 44% 29.95 in 10.0 mi SSE 8.1 mph - N/A   Clear
5:55 PM 57.2 °F - 35.6 °F 44% 29.95 in 10.0 mi South 8.1 mph - N/A   Clear
6:15 PM 59.0 °F - 35.6 °F 42% 29.94 in 10.0 mi South 8.1 mph - N/A   Clear
6:35 PM 59.0 °F - 35.6 °F 42% 29.94 in 10.0 mi South 8.1 mph - N/A   Clear
6:55 PM 59.0 °F - 35.6 °F 42% 29.94 in 10.0 mi South 10.4 mph 20.7 mph N/A   Clear
7:15 PM 59.0 °F - 35.6 °F 42% 29.94 in 10.0 mi Calm Calm - N/A   Clear
7:35 PM 59.0 °F - 35.6 °F 42% 29.94 in 10.0 mi South 12.7 mph 20.7 mph N/A   Clear
7:55 PM 59.0 °F - 37.4 °F 45% 29.94 in 10.0 mi South 10.4 mph 21.9 mph N/A   Clear
8:15 PM 59.0 °F - 37.4 °F 45% 29.94 in 10.0 mi South 15.0 mph 18.4 mph N/A   Clear
8:35 PM 57.2 °F - 37.4 °F 48% 29.95 in 10.0 mi South 10.4 mph 17.3 mph N/A   Clear
8:55 PM 57.2 °F - 37.4 °F 48% 29.94 in 10.0 mi South 13.8 mph 20.7 mph N/A   Clear
9:15 PM 57.2 °F - 37.4 °F 48% 29.94 in 10.0 mi South 12.7 mph - N/A   Clear
9:35 PM 57.2 °F - 37.4 °F 48% 29.94 in 10.0 mi South 12.7 mph 18.4 mph N/A   Clear
9:55 PM 55.4 °F - 37.4 °F 51% 29.95 in 10.0 mi South 11.5 mph 17.3 mph N/A   Clear
10:15 PM 55.4 °F - 37.4 °F 51% 29.95 in 10.0 mi South 11.5 mph - N/A   Clear
10:35 PM 57.2 °F - 37.4 °F 48% 29.94 in 10.0 mi South 11.5 mph 19.6 mph N/A   Clear
10:55 PM 55.4 °F - 37.4 °F 51% 29.94 in 10.0 mi South 11.5 mph - N/A   Clear
11:15 PM 55.4 °F - 37.4 °F 51% 29.94 in 10.0 mi South 10.4 mph 19.6 mph N/A   Clear
11:35 PM 55.4 °F - 37.4 °F 51% 29.95 in 10.0 mi South 13.8 mph 20.7 mph N/A   Clear
11:55 PM 55.4 °F - 37.4 °F 51% 29.94 in 10.0 mi South 13.8 mph 20.7 mph N/A   Clear